Back to catalog

STARLINK-32417

AliveCommunicationsVLEO
NORAD 61673·PAYLOAD·🇺🇸 United States

Launched Oct 26, 2024 from Cape Canaveral Space Force Station

Loading…

Next Passes (next 24 hours)

TLE

FreshSource: CelesTrak SupGP

Epoch: Sep 14, 2026, 14:31 UTC

1 61673C 24193N   26257.60534722  .00023806  00000+0  76573-3 0  2579
2 61673  53.1584 292.2359 0001152  80.6505  94.4287 15.31682876    18

Track STARLINK-32417 in real time with AllMySat

Download on the App Store